| time (UTC) | temp F | wind direction | speed MPH | gust MPH | rain 1hr in | rain 24hr in | rain mn in | humidity % | barometer mb |
| 20260831000413 | 75 | 298 | 1.0 | 3.0 | 0.00 | 0.00 | 0.00 | 48 | 1017.4 |
| 20260830234908 | 76 | 14 | 5.0 | 8.0 | 0.00 | 0.00 | 0.00 | 47 | 1017.7 |
| 20260830233405 | 76 | 51 | 2.0 | 3.0 | 0.00 | 0.00 | 0.00 | 45 | 1017.9 |
| 20260830231905 | 76 | 359 | 3.0 | 5.0 | 0.00 | 0.00 | 0.00 | 43 | 1018.1 |
| 20260830230401 | 76 | 103 | 0.0 | 1.0 | 0.00 | 0.00 | 0.00 | 42 | 1018.2 |
| 20260830224902 | 76 | 43 | 1.0 | 1.0 | 0.00 | 0.00 | 0.00 | 42 | 1018.2 |
| 20260830223359 | 74 | 45 | 2.0 | 3.0 | 0.00 | 0.00 | 0.00 | 44 | 1018.5 |
| 20260830221855 | 75 | 24 | 2.0 | 2.0 | 0.00 | 0.00 | 0.00 | 43 | 1019.0 |
| 20260830220352 | 75 | 108 | 3.0 | 3.0 | 0.00 | 0.00 | 0.00 | 44 | 1019.3 |
| 20260830214851 | 75 | 240 | 0.0 | 0.0 | 0.00 | 0.00 | 0.00 | 48 | 1019.4 |
| 20260830213348 | 74 | 44 | 2.0 | 3.0 | 0.00 | 0.00 | 0.00 | 45 | 1019.7 |
| 20260830211844 | 73 | 23 | 3.0 | 5.0 | 0.00 | 0.00 | 0.00 | 49 | 1019.7 |
| 20260830210339 | 74 | 217 | 2.0 | 2.0 | 0.00 | 0.00 | 0.00 | 46 | 1020.0 |
| 20260830204837 | 73 | 297 | 5.0 | 8.0 | 0.00 | 0.00 | 0.00 | 47 | 1019.9 |
| 20260830203334 | 73 | 54 | 2.0 | 3.0 | 0.00 | 0.00 | 0.00 | 50 | 1020.1 |
| 20260830201830 | 71 | 3 | 4.0 | 6.0 | 0.00 | 0.00 | 0.00 | 51 | 1020.4 |
| 20260830200325 | 71 | 30 | 2.0 | 3.0 | 0.00 | 0.00 | 0.00 | 50 | 1020.5 |
| 20260830194824 | 72 | 55 | 2.0 | 3.0 | 0.00 | 0.00 | 0.00 | 51 | 1020.6 |
| 20260830193325 | 71 | 72 | 1.0 | 1.0 | 0.00 | 0.00 | 0.00 | 51 | 1020.8 |
| 20260830191822 | 70 | 104 | 1.0 | 1.0 | 0.00 | 0.00 | 0.00 | 53 | 1021.2 |
| 20260830190317 | 71 | 168 | 1.0 | 1.0 | 0.00 | 0.00 | 0.00 | 51 | 1021.4 |
| 20260830184813 | 70 | 106 | 0.0 | 1.0 | 0.00 | 0.00 | 0.00 | 52 | 1021.3 |
| 20260830183312 | 69 | 193 | 1.0 | 2.0 | 0.00 | 0.00 | 0.00 | 53 | 1021.5 |
| 20260830181812 | 68 | 215 | 0.0 | 1.0 | 0.00 | 0.00 | 0.00 | 58 | 1021.7 |
| 20260830180307 | 68 | 55 | 1.0 | 2.0 | 0.00 | 0.00 | 0.00 | 59 | 1021.5 |
| 20260830174802 | 68 | 299 | 2.0 | 5.0 | 0.00 | 0.00 | 0.00 | 60 | 1021.5 |
| 20260830173258 | 67 | 93 | 0.0 | 0.0 | 0.00 | 0.00 | 0.00 | 62 | 1021.6 |
| 20260830171753 | 66 | 48 | 0.0 | 0.0 | 0.00 | 0.00 | 0.00 | 66 | 1021.5 |
| 20260830170253 | 65 | 78 | 0.0 | 1.0 | 0.00 | 0.00 | 0.00 | 68 | 1021.7 |
| 20260830164751 | 65 | 258 | 1.0 | 2.0 | 0.00 | 0.00 | 0.00 | 69 | 1021.6 |
| 20260830163250 | 64 | 201 | 1.0 | 2.0 | 0.00 | 0.00 | 0.00 | 70 | 1021.7 |
| 20260830161748 | 63 | 104 | 1.0 | 1.0 | 0.00 | 0.00 | 0.00 | 72 | 1022.0 |
| 20260830160249 | 59 | 326 | 1.0 | 2.0 | 0.00 | 0.00 | 0.00 | 79 | 1022.0 |
| 20260830154747 | 59 | 332 | 0.0 | 0.0 | 0.00 | 0.00 | 0.00 | 83 | 1022.0 |
| 20260830153246 | 57 | 133 | 0.0 | 0.0 | 0.00 | 0.00 | 0.00 | 83 | 1022.0 |
| 20260830151744 | 56 | 282 | 2.0 | 2.0 | 0.00 | 0.00 | 0.00 | 86 | 1022.3 |
| 20260830150245 | 55 | 278 | 1.0 | 2.0 | 0.00 | 0.00 | 0.00 | 88 | 1022.3 |
| 20260830144741 | 53 | 158 | 0.0 | 1.0 | 0.00 | 0.00 | 0.00 | 92 | 1022.5 |
| 20260830143237 | 51 | 196 | 1.0 | 1.0 | 0.00 | 0.00 | 0.00 | 98 | 1022.4 |
| 20260830141735 | 48 | 61 | 0.0 | 0.0 | 0.00 | 0.00 | 0.00 | 98 | 1022.3 |
| 20260830140231 | 48 | 62 | 0.0 | 0.0 | 0.00 | 0.00 | 0.00 | 98 | 1022.1 |
| 20260830134728 | 49 | 62 | 0.0 | 0.0 | 0.00 | 0.00 | 0.00 | 98 | 1022.2 |
| 20260830133227 | 48 | 62 | 0.0 | 0.0 | 0.00 | 0.00 | 0.00 | 98 | 1022.1 |
| 20260830131722 | 47 | 62 | 0.0 | 0.0 | 0.00 | 0.00 | 0.00 | 98 | 1022.2 |
| 20260830130218 | 47 | 62 | 0.0 | 0.0 | 0.00 | 0.00 | 0.00 | 98 | 1022.0 |
| 20260830124716 | 48 | 62 | 0.0 | 0.0 | 0.00 | 0.00 | 0.00 | 97 | 1021.9 |
| 20260830123216 | 48 | 62 | 0.0 | 0.0 | 0.00 | 0.00 | 0.00 | 97 | 1021.8 |
| 20260830121715 | 48 | 62 | 0.0 | 0.0 | 0.00 | 0.00 | 0.00 | 97 | 1021.7 |
| 20260830120212 | 48 | 63 | 0.0 | 0.0 | 0.00 | 0.00 | 0.00 | 97 | 1021.7 |
| 20260830114712 | 48 | 63 | 0.0 | 0.0 | 0.00 | 0.00 | 0.00 | 97 | 1021.8 |
| 20260830113207 | 49 | 63 | 0.0 | 0.0 | 0.00 | 0.00 | 0.00 | 97 | 1021.6 |
| 20260830111707 | 49 | 63 | 0.0 | 0.0 | 0.00 | 0.00 | 0.00 | 97 | 1021.8 |
| 20260830110205 | 49 | 63 | 0.0 | 0.0 | 0.00 | 0.00 | 0.00 | 96 | 1021.7 |
| 20260830104702 | 49 | 65 | 0.0 | 0.0 | 0.00 | 0.00 | 0.00 | 96 | 1021.8 |
| 20260830103159 | 49 | 65 | 0.0 | 0.0 | 0.00 | 0.00 | 0.00 | 95 | 1021.8 |
| 20260830101655 | 50 | 65 | 0.0 | 0.0 | 0.00 | 0.00 | 0.00 | 94 | 1021.9 |
| 20260830100150 | 50 | 64 | 0.0 | 0.0 | 0.00 | 0.00 | 0.00 | 94 | 1021.8 |
| 20260830094647 | 50 | 63 | 0.0 | 0.0 | 0.00 | 0.00 | 0.00 | 94 | 1021.7 |
| 20260830093146 | 50 | 56 | 0.0 | 0.0 | 0.00 | 0.00 | 0.00 | 94 | 1021.8 |
| 20260830091643 | 50 | 67 | 0.0 | 0.0 | 0.00 | 0.00 | 0.00 | 93 | 1021.8 |
| 20260830090139 | 51 | 67 | 0.0 | 0.0 | 0.00 | 0.00 | 0.00 | 93 | 1021.9 |
| 20260830084635 | 51 | 68 | 0.0 | 0.0 | 0.00 | 0.00 | 0.00 | 93 | 1021.8 |
| 20260830083132 | 51 | 68 | 0.0 | 0.0 | 0.00 | 0.00 | 0.00 | 92 | 1021.9 |
| 20260830081629 | 51 | 68 | 0.0 | 0.0 | 0.00 | 0.00 | 0.00 | 92 | 1021.7 |
| 20260830080125 | 52 | 68 | 0.0 | 0.0 | 0.00 | 0.00 | 0.00 | 91 | 1021.9 |
| 20260830074621 | 53 | 65 | 0.0 | 0.0 | 0.00 | 0.00 | 0.00 | 89 | 1021.9 |
| 20260830073120 | 53 | 73 | 0.0 | 0.0 | 0.00 | 0.00 | 0.00 | 88 | 1021.7 |
| 20260830071616 | 54 | 74 | 0.0 | 0.0 | 0.00 | 0.00 | 0.00 | 88 | 1021.6 |
| 20260830070115 | 54 | 19 | 0.0 | 0.0 | 0.00 | 0.00 | 0.00 | 88 | 1021.6 |
| 20260830064613 | 54 | 19 | 0.0 | 0.0 | 0.00 | 0.01 | 0.01 | 86 | 1021.7 |
| 20260830063108 | 55 | 19 | 0.0 | 0.0 | 0.00 | 0.01 | 0.01 | 86 | 1021.7 |
| 20260830061603 | 55 | 19 | 0.0 | 0.0 | 0.00 | 0.01 | 0.01 | 84 | 1021.5 |
| 20260830060058 | 57 | 19 | 0.0 | 0.0 | 0.00 | 0.01 | 0.01 | 82 | 1021.6 |
| 20260830054556 | 58 | 297 | 0.0 | 0.0 | 0.00 | 0.01 | 0.01 | 80 | 1021.4 |
| 20260830053052 | 57 | 19 | 0.0 | 0.0 | 0.00 | 0.01 | 0.01 | 78 | 1021.6 |
| 20260830051548 | 58 | 19 | 0.0 | 0.0 | 0.00 | 0.01 | 0.01 | 76 | 1021.4 |
| 20260830050044 | 59 | 19 | 0.0 | 0.0 | 0.00 | 0.01 | 0.01 | 75 | 1021.5 |
| 20260830044538 | 60 | 288 | 0.0 | 0.0 | 0.00 | 0.01 | 0.01 | 72 | 1021.5 |
| 20260830043033 | 61 | 267 | 0.0 | 1.0 | 0.00 | 0.01 | 0.01 | 71 | 1021.5 |
| 20260830041531 | 61 | 257 | 0.0 | 1.0 | 0.00 | 0.01 | 0.01 | 69 | 1021.3 |
| 20260830040027 | 62 | 286 | 1.0 | 1.0 | 0.00 | 0.01 | 0.01 | 67 | 1021.2 |
| 20260830034522 | 63 | 268 | 1.0 | 1.0 | 0.00 | 0.01 | 0.01 | 65 | 1021.1 |
| 20260830033018 | 64 | 335 | 0.0 | 0.0 | 0.00 | 0.01 | 0.01 | 62 | 1020.8 |
| 20260830031513 | 64 | 306 | 0.0 | 0.0 | 0.00 | 0.01 | 0.01 | 61 | 1020.7 |
| 20260830030011 | 65 | 226 | 1.0 | 1.0 | 0.00 | 0.01 | 0.01 | 57 | 1020.5 |
| 20260830024510 | 66 | 347 | 1.0 | 2.0 | 0.00 | 0.01 | 0.01 | 55 | 1020.6 |
| 20260830023007 | 67 | 322 | 1.0 | 2.0 | 0.00 | 0.01 | 0.01 | 53 | 1020.4 |
| 20260830021503 | 68 | 40 | 1.0 | 1.0 | 0.00 | 0.01 | 0.01 | 53 | 1020.4 |
| 20260830015958 | 69 | 156 | 0.0 | 1.0 | 0.00 | 0.01 | 0.01 | 52 | 1020.3 |
| 20260830014457 | 69 | 306 | 0.0 | 1.0 | 0.00 | 0.01 | 0.01 | 50 | 1020.1 |
| 20260830012954 | 70 | 80 | 3.0 | 6.0 | 0.00 | 0.01 | 0.01 | 50 | 1020.2 |
| 20260830011452 | 71 | 213 | 1.0 | 2.0 | 0.00 | 0.01 | 0.01 | 49 | 1020.0 |
| 20260830005948 | 74 | 186 | 0.0 | 1.0 | 0.00 | 0.01 | 0.01 | 48 | 1020.0 |
| 20260830004446 | 74 | 105 | 0.0 | 0.0 | 0.00 | 0.01 | 0.01 | 47 | 1020.1 |
| 20260830002944 | 76 | 147 | 0.0 | 1.0 | 0.00 | 0.01 | 0.01 | 44 | 1020.0 |
| 20260830001441 | 75 | 221 | 1.0 | 1.0 | 0.00 | 0.01 | 0.01 | 46 | 1020.0 |